Simultaneous Nadir Overpasses (SNOs) Predictions

Prediction of SNOs between GOES-17 and TERRA Satellite Orbit:

Table of predicted SNOs for the next 14.0 days since TLE Epoch: 7/15/2023
Index Date Time (GOES-17) GOES-17 Lat,Lon TERRA Lat,Lon Distance(km) Time Diff (sec)
1 07/16/2023 16:51:01 -0.01,-104.73 -0.69,-101.43 374.86 80
2 07/17/2023 05:11:20 0.01,-104.71 -0.33,-106.37 189.06 80
3 07/19/2023 04:52:15 0.01,-104.71 0.49,-102.41 261.26 80
4 07/19/2023 17:12:26 -0.01,-104.73 0.51,-107.32 293.31 80
5 07/21/2023 16:58:40 -0.01,-104.73 -0.27,-103.34 157.74 80
6 07/22/2023 05:18:58 0.01,-104.71 -0.73,-108.28 405.34 80
7 07/24/2023 04:59:52 0.01,-104.71 0.08,-104.31 45.87 80
8 07/26/2023 04:43:27 0.01,-104.71 0.90,-100.34 496.96 80
9 07/26/2023 17:03:37 -0.01,-104.74 0.09,-105.25 57.98 80
10 07/28/2023 16:49:51 -0.01,-104.73 -0.75,-101.28 392.79 80
